Regional Weather Roundup
Issued by NWS

Home | Current Version | Previous Version | Graphics & Text | Print | Product List | Glossary On
Versions: 1 2 3 4 5 6 7 8 9 10 11 12 13 14 15 16 17 18 19 20 21 22 23 24 25 26 27 28 29 30 31 32 33 34 35 36 37 38 39 40 41 42 43 44 45 46 47 48 49 50
000
ASUS43 KIND 192209
RWRIN

WEATHER ROUNDUP FOR INDIANA
NATIONAL WEATHER SERVICE INDIANAPOLIS IN
600 PM EDT SAT APR 19 2014

NOTE: "FAIR" INDICATES FEW OR NO CLOUDS BELOW 12,000 FEET WITH NO
SIGNIFICANT WEATHER AND/OR OBSTRUCTIONS TO VISIBILITY.

* - STATION DOES NOT REPORT WEATHER SUCH AS PRECIPITATION OR FOG.

+ - STATION NOT QUALITY CONTROLLED BY THE NATIONAL WEATHER SERVICE.
    USE DATA WITH CAUTION...ESPECIALLY DEWPOINT AND RELATIVE
    HUMIDITY OBSERVATIONS.

INZ001>003-010>013-019-020-192300-
NORTHWEST INDIANA

CITY           SKY/WX    TMP DP  RH WIND       PRES   REMARKS
LA PORTE +     SUNNY     64  33  31 SE8       30.27F
MICHIGAN CITY+ SUNNY     64  32  29 S7        30.26F
MONTICELLO +   SUNNY     65  37  36 E7        30.25F
RENSSELAER +   SUNNY     66  32  28 E10       30.25F
VALPARAISO     SUNNY     65  32  29 SE9       30.26F

$$

LMZ046-743>745-192300-
SOUTHERN LAKE MICHIGAN

STATION/POSITION TIME  TEMP WIND        PRES
                       AIR  DIR/SP/G
                 (UTC) (F)  (DEG/KT/KT) (MB)
MICHIGAN CITY    2200   64  100/  6/ 10   N/A

$$

INZ004-005-014>016-021>024-192300-
NORTH CENTRAL INDIANA

CITY           SKY/WX    TMP DP  RH WIND       PRES   REMARKS
ELKHART        SUNNY     63  30  29 SE10      30.29F
GOSHEN         SUNNY     63  33  32 E8        30.28F
LOGANSPORT +   SUNNY     63  32  31 E9        30.27F
PERU/GRISSOM   SUNNY     64  37  37 E10       30.26F
ROCHESTER +    SUNNY     64  34  32 E8        30.28S
SOUTH BEND     SUNNY     64  34  32 SE9       30.28F
WARSAW +       SUNNY     61  34  36 SE12      30.28F

$$

INZ006>009-017-018-025>027-192300-
NORTHEAST INDIANA

CITY           SKY/WX    TMP DP  RH WIND       PRES   REMARKS
ANGOLA *+      SUNNY     57  32  38 SE9       30.31F
AUBURN +       SUNNY     59  28  31 E14       30.31S
FORT WAYNE     MOSUNNY   60  29  30 E13       30.30F

$$

INZ028-029-035-036-043>045-051>053-192300-
WEST CENTRAL INDIANA

CITY           SKY/WX    TMP DP  RH WIND       PRES   REMARKS
GREENCASTLE +  SUNNY     68  37  32 E8        30.24S
LAFAYETTE      SUNNY     66  38  35 E13       30.24F
TERRE HAUTE    SUNNY     70  39  32 E12       30.22F

$$

INZ030>032-037>040-046>048-054>057-064-065-192300-
CENTRAL INDIANA

CITY           SKY/WX    TMP DP  RH WIND       PRES   REMARKS
CP ATTERBURY + SUNNY     68  36  30 E8G18     30.24S
COLUMBUS       SUNNY     68  36  30 E13       30.23F
INDIANAPOLIS   MOSUNNY   66  36  32 E13       30.24S
-EAGLE CREEK   SUNNY     66  36  32 E8        30.24F
KOKOMO *+      SUNNY     63  37  39 E10G20    30.26F
MARION +       SUNNY     62  32  32 E10       30.28S
MT COMFORT *+  SUNNY     66  39  37 E14       30.26S
SHELBYVILLE    SUNNY     70  37  29 E13       30.24F
ZIONSVILLE +   SUNNY     67  34  29 E10       30.26S

$$

INZ033-034-041-042-049-050-058-059-192300-
EAST CENTRAL INDIANA

CITY           SKY/WX    TMP DP  RH WIND       PRES   REMARKS
MUNCIE         SUNNY     62  35  36 E12       30.27F

$$

INZ060-061-067>069-081>083-085>088-192300-
SOUTHWEST INDIANA

CITY           SKY/WX    TMP DP  RH WIND       PRES   REMARKS
EVANSVILLE     SUNNY     76  34  21 E8        30.18F
HUNTINGBURG *+ SUNNY     72  39  30 NE10      30.20S
WASHINGTON +   SUNNY     73  39  29 SE10      30.20S

$$

INZ062-063-066-070>080-084-089>092-192300-
SOUTH CENTRAL AND SOUTHEAST INDIANA

CITY           SKY/WX    TMP DP  RH WIND       PRES   REMARKS
BEDFORD +      SUNNY     72  28  20 E8        30.22F
BLOOMINGTON    SUNNY     71  33  24 NE13      30.22S
SEYMOUR +      SUNNY     68  19  15 NE7       30.22F

$$




USA.gov is the U.S. government's official web portal to all federal, state and local government web resources and services.